Data supplied by UK-AIR on 24/3/2020
All Data GMT hour ending 
Status: R =Ratified P=Provisional,P*=As supplied
,,Bush Estate,,,,,,,,,,,,,,,,,,,,,,,
Date,time,"Nitric oxide",status,unit,"Nitrogen dioxide",status,unit,"Nitrogen oxides as nitrogen dioxide",status,unit,"Ozone",status,unit
 
01-01-2019,01:00,0.30430,R,ugm-3,0.78352,R,ugm-3,1.25010,R,ugm-3,68.78513,R,ugm-3
01-01-2019,02:00,0.50716,R,ugm-3,0.39434,R,ugm-3,1.17197,R,ugm-3,71.97825,R,ugm-3
01-01-2019,03:00,0.49448,R,ugm-3,0.53098,R,ugm-3,1.28917,R,ugm-3,76.03617,R,ugm-3
01-01-2019,04:00,0.19019,R,ugm-3,0.70456,R,ugm-3,0.99618,R,ugm-3,73.84090,R,ugm-3
01-01-2019,05:00,0.15215,R,ugm-3,1.23168,R,ugm-3,1.46496,R,ugm-3,70.49810,R,ugm-3
01-01-2019,06:00,0.19019,R,ugm-3,1.64214,R,ugm-3,1.93375,R,ugm-3,65.95789,R,ugm-3
01-01-2019,07:00,0.53252,R,ugm-3,2.34781,R,ugm-3,3.16432,R,ugm-3,65.50885,R,ugm-3
01-01-2019,08:00,0.26626,R,ugm-3,3.86944,R,ugm-3,4.27769,R,ugm-3,64.66068,R,ugm-3
01-01-2019,09:00,0.41841,R,ugm-3,4.63232,R,ugm-3,5.27387,R,ugm-3,64.31143,R,ugm-3
01-01-2019,10:00,0.45644,R,ugm-3,5.10139,R,ugm-3,5.80126,R,ugm-3,59.32218,R,ugm-3
01-01-2019,11:00,0.60859,R,ugm-3,2.58276,R,ugm-3,3.51591,R,ugm-3,64.21165,R,ugm-3
01-01-2019,12:00,0.64663,R,ugm-3,3.93080,R,ugm-3,4.92228,R,ugm-3,64.66068,R,ugm-3
01-01-2019,13:00,1.02699,R,ugm-3,7.33227,R,ugm-3,8.90698,R,ugm-3,58.67358,R,ugm-3
01-01-2019,14:00,0.95092,R,ugm-3,8.97248,R,ugm-3,10.43054,R,ugm-3,57.22670,R,ugm-3
01-01-2019,15:00,0.60859,R,ugm-3,4.92670,R,ugm-3,5.85985,R,ugm-3,69.10111,R,ugm-3
01-01-2019,16:00,0.72270,R,ugm-3,7.03707,R,ugm-3,8.14520,R,ugm-3,68.25294,R,ugm-3
01-01-2019,17:00,0.41841,R,ugm-3,8.55842,R,ugm-3,9.19997,R,ugm-3,65.30928,R,ugm-3
01-01-2019,18:00,0.41841,R,ugm-3,9.55460,R,ugm-3,10.19614,R,ugm-3,64.81036,R,ugm-3
01-01-2019,19:00,0.45644,R,ugm-3,10.14086,R,ugm-3,10.84073,R,ugm-3,61.76692,R,ugm-3
01-01-2019,20:00,0.30430,R,ugm-3,10.13976,R,ugm-3,10.60634,R,ugm-3,60.32003,R,ugm-3
01-01-2019,21:00,0.49448,R,ugm-3,13.77425,R,ugm-3,14.53244,R,ugm-3,54.88175,R,ugm-3
01-01-2019,22:00,0.41841,R,ugm-3,12.71892,R,ugm-3,13.36047,R,ugm-3,55.87960,R,ugm-3
01-01-2019,23:00,0.41841,R,ugm-3,12.66032,R,ugm-3,13.30187,R,ugm-3,43.65594,R,ugm-3
01-01-2019,24:00,0.38037,R,ugm-3,10.31610,R,ugm-3,10.89933,R,ugm-3,42.65809,R,ugm-3
02-01-2019,01:00,0.86362,R,ugm-3,13.00494,R,ugm-3,14.32914,R,ugm-3,34.59213,R,ugm-3
02-01-2019,02:00,0.86362,R,ugm-3,10.57760,R,ugm-3,11.90180,R,ugm-3,37.91830,R,ugm-3
02-01-2019,03:00,1.67644,R,ugm-3,12.40462,R,ugm-3,14.97513,R,ugm-3,35.72303,R,ugm-3
02-01-2019,04:00,0.99062,R,ugm-3,9.52155,R,ugm-3,11.04049,R,ugm-3,25.79442,R,ugm-3
02-01-2019,05:00,1.06683,R,ugm-3,9.87452,R,ugm-3,11.51030,R,ugm-3,28.98754,R,ugm-3
02-01-2019,06:00,0.76202,R,ugm-3,8.87373,R,ugm-3,10.04215,R,ugm-3,30.73378,R,ugm-3
02-01-2019,07:00,1.52404,R,ugm-3,12.57958,R,ugm-3,14.91640,R,ugm-3,28.83787,R,ugm-3
02-01-2019,08:00,0.53341,R,ugm-3,11.69075,R,ugm-3,12.50864,R,ugm-3,31.18281,R,ugm-3
02-01-2019,09:00,0.41911,R,ugm-3,10.10423,R,ugm-3,10.74686,R,ugm-3,34.62540,R,ugm-3
02-01-2019,10:00,0.76202,R,ugm-3,12.51474,R,ugm-3,13.68316,R,ugm-3,33.52776,R,ugm-3
02-01-2019,11:00,1.71454,R,ugm-3,11.05423,R,ugm-3,13.68316,R,ugm-3,35.32389,R,ugm-3
02-01-2019,12:00,1.56214,R,ugm-3,6.58983,R,ugm-3,8.98508,R,ugm-3,48.79487,R,ugm-3
02-01-2019,13:00,0.95252,R,ugm-3,4.88189,R,ugm-3,6.34241,R,ugm-3,58.17466,R,ugm-3
02-01-2019,14:00,0.91442,R,ugm-3,4.99904,R,ugm-3,6.40113,R,ugm-3,59.22240,R,ugm-3
02-01-2019,15:00,0.64772,R,ugm-3,5.23180,R,ugm-3,6.22496,R,ugm-3,58.22455,R,ugm-3
02-01-2019,16:00,0.76202,R,ugm-3,9.40227,R,ugm-3,10.57068,R,ugm-3,51.33938,R,ugm-3
02-01-2019,17:00,0.53341,R,ugm-3,16.21265,R,ugm-3,17.03054,R,ugm-3,38.71658,R,ugm-3
02-01-2019,18:00,0.57151,R,ugm-3,16.21296,R,ugm-3,17.08926,R,ugm-3,35.92260,R,ugm-3
02-01-2019,19:00,0.38101,R,ugm-3,12.74659,R,ugm-3,13.33080,R,ugm-3,43.00734,R,ugm-3
02-01-2019,20:00,0.38101,R,ugm-3,6.69782,R,ugm-3,7.28202,R,ugm-3,53.58455,R,ugm-3
02-01-2019,21:00,0.34291,R,ugm-3,6.40388,R,ugm-3,6.92967,R,ugm-3,54.23315,R,ugm-3
02-01-2019,22:00,0.68582,R,ugm-3,7.34625,R,ugm-3,8.39782,R,ugm-3,49.04433,R,ugm-3
02-01-2019,23:00,0.38101,R,ugm-3,5.17094,R,ugm-3,5.75515,R,ugm-3,51.43917,R,ugm-3
02-01-2019,24:00,0.30481,R,ugm-3,4.23071,R,ugm-3,4.69808,R,ugm-3,53.68433,R,ugm-3
03-01-2019,01:00,0.35621,R,ugm-3,3.29892,R,ugm-3,3.84509,R,ugm-3,53.41824,R,ugm-3
03-01-2019,02:00,0.49615,R,ugm-3,3.65326,R,ugm-3,4.41401,R,ugm-3,48.96117,R,ugm-3
03-01-2019,03:00,0.49615,R,ugm-3,3.41785,R,ugm-3,4.17859,R,ugm-3,48.94454,R,ugm-3
03-01-2019,04:00,0.45798,R,ugm-3,3.12325,R,ugm-3,3.82547,R,ugm-3,52.88605,R,ugm-3
03-01-2019,05:00,0.38165,R,ugm-3,3.18143,R,ugm-3,3.76662,R,ugm-3,52.68648,R,ugm-3
03-01-2019,06:00,0.34349,R,ugm-3,4.06390,R,ugm-3,4.59057,R,ugm-3,51.98799,R,ugm-3
03-01-2019,07:00,0.30532,R,ugm-3,4.53439,R,ugm-3,5.00254,R,ugm-3,51.68863,R,ugm-3
03-01-2019,08:00,0.30532,R,ugm-3,6.82968,R,ugm-3,7.29783,R,ugm-3,48.14626,R,ugm-3
03-01-2019,09:00,0.68697,R,ugm-3,7.59812,R,ugm-3,8.65146,R,ugm-3,45.05293,R,ugm-3
03-01-2019,10:00,0.61064,R,ugm-3,6.36153,R,ugm-3,7.29783,R,ugm-3,48.69508,R,ugm-3
03-01-2019,11:00,0.53431,R,ugm-3,6.12544,R,ugm-3,6.94471,R,ugm-3,52.78627,R,ugm-3
03-01-2019,12:00,0.45798,R,ugm-3,4.71229,R,ugm-3,5.41452,R,ugm-3,54.78197,R,ugm-3
03-01-2019,13:00,0.76330,R,ugm-3,5.59777,R,ugm-3,6.76815,R,ugm-3,51.48906,R,ugm-3
03-01-2019,14:00,0.57248,R,ugm-3,6.89087,R,ugm-3,7.76866,R,ugm-3,49.09422,R,ugm-3
03-01-2019,15:00,0.57248,R,ugm-3,6.36119,R,ugm-3,7.23898,R,ugm-3,49.04433,R,ugm-3
03-01-2019,16:00,0.38165,R,ugm-3,8.18398,R,ugm-3,8.76916,R,ugm-3,46.84906,R,ugm-3
03-01-2019,17:00,0.41982,R,ugm-3,7.77234,R,ugm-3,8.41604,R,ugm-3,45.95099,R,ugm-3
03-01-2019,18:00,0.57248,R,ugm-3,9.65698,R,ugm-3,10.53477,R,ugm-3,43.15701,R,ugm-3
03-01-2019,19:00,0.41982,R,ugm-3,6.83068,R,ugm-3,7.47439,R,ugm-3,50.89035,R,ugm-3
03-01-2019,20:00,0.22899,R,ugm-3,4.94570,R,ugm-3,5.29681,R,ugm-3,56.12906,R,ugm-3
03-01-2019,21:00,0.22899,R,ugm-3,6.53474,R,ugm-3,6.88586,R,ugm-3,47.74712,R,ugm-3
03-01-2019,22:00,0.57248,R,ugm-3,6.18463,R,ugm-3,7.06242,R,ugm-3,46.30024,R,ugm-3
03-01-2019,23:00,0.22899,R,ugm-3,5.82850,R,ugm-3,6.17961,R,ugm-3,45.65164,R,ugm-3
03-01-2019,24:00,0.19083,R,ugm-3,5.29848,R,ugm-3,5.59108,R,ugm-3,46.54970,R,ugm-3
04-01-2019,01:00,0.35681,R,ugm-3,3.62089,R,ugm-3,4.16798,R,ugm-3,55.01480,R,ugm-3
04-01-2019,02:00,0.30583,R,ugm-3,3.38448,R,ugm-3,3.85342,R,ugm-3,48.54540,R,ugm-3
04-01-2019,03:00,0.38229,R,ugm-3,3.42453,R,ugm-3,4.01070,R,ugm-3,49.09422,R,ugm-3
04-01-2019,04:00,0.15292,R,ugm-3,2.41967,R,ugm-3,2.65414,R,ugm-3,60.96864,R,ugm-3
04-01-2019,05:00,0.22938,R,ugm-3,1.88957,R,ugm-3,2.24127,R,ugm-3,60.81896,R,ugm-3
04-01-2019,06:00,0.11469,R,ugm-3,1.88848,R,ugm-3,2.06433,R,ugm-3,60.02068,R,ugm-3
04-01-2019,07:00,0.38229,R,ugm-3,2.77574,R,ugm-3,3.36191,R,ugm-3,58.22455,R,ugm-3
04-01-2019,08:00,0.49698,R,ugm-3,3.36664,R,ugm-3,4.12867,R,ugm-3,54.48261,R,ugm-3
04-01-2019,09:00,0.26760,R,ugm-3,4.01325,R,ugm-3,4.42357,R,ugm-3,51.93809,R,ugm-3
04-01-2019,10:00,0.45875,R,ugm-3,5.01774,R,ugm-3,5.72115,R,ugm-3,47.84691,R,ugm-3
04-01-2019,11:00,0.61167,R,ugm-3,5.66799,R,ugm-3,6.60586,R,ugm-3,46.49981,R,ugm-3
04-01-2019,12:00,0.76458,R,ugm-3,7.73377,R,ugm-3,8.90612,R,ugm-3,43.25680,R,ugm-3
04-01-2019,13:00,0.72636,R,ugm-3,8.32322,R,ugm-3,9.43695,R,ugm-3,48.49551,R,ugm-3
04-01-2019,14:00,0.34406,R,ugm-3,6.01933,R,ugm-3,6.54688,R,ugm-3,56.97724,R,ugm-3
04-01-2019,15:00,0.53521,R,ugm-3,7.43669,R,ugm-3,8.25733,R,ugm-3,55.28089,R,ugm-3
04-01-2019,16:00,0.38229,R,ugm-3,7.67116,R,ugm-3,8.25733,R,ugm-3,54.68218,R,ugm-3
04-01-2019,17:00,0.30583,R,ugm-3,6.49081,R,ugm-3,6.95975,R,ugm-3,58.87315,R,ugm-3
04-01-2019,18:00,0.38229,R,ugm-3,6.55052,R,ugm-3,7.13669,R,ugm-3,58.62369,R,ugm-3
04-01-2019,19:00,0.22938,R,ugm-3,4.95658,R,ugm-3,5.30828,R,ugm-3,63.76262,R,ugm-3
04-01-2019,20:00,0.22938,R,ugm-3,4.42575,R,ugm-3,4.77745,R,ugm-3,62.76477,R,ugm-3
04-01-2019,21:00,0.38229,R,ugm-3,3.71943,R,ugm-3,4.30561,R,ugm-3,62.71487,R,ugm-3
04-01-2019,22:00,0.38229,R,ugm-3,3.18861,R,ugm-3,3.77478,R,ugm-3,61.11831,R,ugm-3
04-01-2019,23:00,0.11469,R,ugm-3,2.83218,R,ugm-3,3.00803,R,ugm-3,61.26799,R,ugm-3
04-01-2019,24:00,0.38229,R,ugm-3,2.59880,R,ugm-3,3.18497,R,ugm-3,60.81896,R,ugm-3
05-01-2019,01:00,0.20423,R,ugm-3,2.76049,R,ugm-3,3.07364,R,ugm-3,60.53623,R,ugm-3
05-01-2019,02:00,0.38293,R,ugm-3,2.01361,R,ugm-3,2.60077,R,ugm-3,62.59846,R,ugm-3
05-01-2019,03:00,0.34464,R,ugm-3,1.83590,R,ugm-3,2.36434,R,ugm-3,64.36133,R,ugm-3
05-01-2019,04:00,0.22976,R,ugm-3,1.71650,R,ugm-3,2.06879,R,ugm-3,64.06197,R,ugm-3
05-01-2019,05:00,0.38293,R,ugm-3,1.65896,R,ugm-3,2.24612,R,ugm-3,62.96434,R,ugm-3
05-01-2019,06:00,0.34464,R,ugm-3,1.71768,R,ugm-3,2.24612,R,ugm-3,62.26584,R,ugm-3
05-01-2019,07:00,0.42123,R,ugm-3,1.77757,R,ugm-3,2.42344,R,ugm-3,63.66283,R,ugm-3
05-01-2019,08:00,0.11488,R,ugm-3,1.77443,R,ugm-3,1.95058,R,ugm-3,65.05982,R,ugm-3
05-01-2019,09:00,0.30635,R,ugm-3,2.01283,R,ugm-3,2.48255,R,ugm-3,65.75832,R,ugm-3
05-01-2019,10:00,0.38293,R,ugm-3,2.07272,R,ugm-3,2.65988,R,ugm-3,66.20735,R,ugm-3
05-01-2019,11:00,0.42123,R,ugm-3,2.84152,R,ugm-3,3.48739,R,ugm-3,63.26369,R,ugm-3
05-01-2019,12:00,0.30635,R,ugm-3,3.43143,R,ugm-3,3.90115,R,ugm-3,61.11831,R,ugm-3
05-01-2019,13:00,0.49781,R,ugm-3,4.20180,R,ugm-3,4.96510,R,ugm-3,57.77552,R,ugm-3
05-01-2019,14:00,0.34464,R,ugm-3,3.37271,R,ugm-3,3.90115,R,ugm-3,60.56950,R,ugm-3
05-01-2019,15:00,0.45952,R,ugm-3,4.31962,R,ugm-3,5.02421,R,ugm-3,57.52605,R,ugm-3
05-01-2019,16:00,0.30635,R,ugm-3,3.60875,R,ugm-3,4.07848,R,ugm-3,59.62154,R,ugm-3
05-01-2019,17:00,0.34464,R,ugm-3,2.60430,R,ugm-3,3.13274,R,ugm-3,64.21165,R,ugm-3
05-01-2019,18:00,0.57440,R,ugm-3,4.37991,R,ugm-3,5.26065,R,ugm-3,58.52390,R,ugm-3
05-01-2019,19:00,0.34464,R,ugm-3,3.84558,R,ugm-3,4.37402,R,ugm-3,61.26799,R,ugm-3
05-01-2019,20:00,0.26805,R,ugm-3,2.60352,R,ugm-3,3.01453,R,ugm-3,64.41122,R,ugm-3
05-01-2019,21:00,0.34464,R,ugm-3,3.72736,R,ugm-3,4.25580,R,ugm-3,59.77122,R,ugm-3
05-01-2019,22:00,0.49781,R,ugm-3,4.73378,R,ugm-3,5.49708,R,ugm-3,54.18326,R,ugm-3
05-01-2019,23:00,0.42123,R,ugm-3,4.61478,R,ugm-3,5.26065,R,ugm-3,53.38498,R,ugm-3
05-01-2019,24:00,0.19147,R,ugm-3,3.84401,R,ugm-3,4.13759,R,ugm-3,51.53895,R,ugm-3
06-01-2019,01:00,0.61372,R,ugm-3,3.40294,R,ugm-3,4.34396,R,ugm-3,49.95902,R,ugm-3
06-01-2019,02:00,0.56258,R,ugm-3,2.53358,R,ugm-3,3.39619,R,ugm-3,48.16289,R,ugm-3
06-01-2019,03:00,0.57536,R,ugm-3,2.67194,R,ugm-3,3.55415,R,ugm-3,47.29809,R,ugm-3
06-01-2019,04:00,0.38358,R,ugm-3,2.37365,R,ugm-3,2.96179,R,ugm-3,47.54755,R,ugm-3
06-01-2019,05:00,0.34522,R,ugm-3,1.89934,R,ugm-3,2.42867,R,ugm-3,54.13336,R,ugm-3
06-01-2019,06:00,0.42193,R,ugm-3,2.55178,R,ugm-3,3.19874,R,ugm-3,47.19831,R,ugm-3
06-01-2019,07:00,0.26850,R,ugm-3,2.13544,R,ugm-3,2.54714,R,ugm-3,50.29164,R,ugm-3
06-01-2019,08:00,0.34522,R,ugm-3,2.07705,R,ugm-3,2.60638,R,ugm-3,51.58885,R,ugm-3
06-01-2019,09:00,0.49865,R,ugm-3,2.96728,R,ugm-3,3.73186,R,ugm-3,46.05078,R,ugm-3
06-01-2019,10:00,0.49865,R,ugm-3,3.67811,R,ugm-3,4.44269,R,ugm-3,42.90755,R,ugm-3
06-01-2019,11:00,0.53700,R,ugm-3,3.02694,R,ugm-3,3.85033,R,ugm-3,45.80132,R,ugm-3
06-01-2019,12:00,0.42193,R,ugm-3,1.95942,R,ugm-3,2.60638,R,ugm-3,51.53895,R,ugm-3
06-01-2019,13:00,0.30686,R,ugm-3,2.55052,R,ugm-3,3.02103,R,ugm-3,47.84691,R,ugm-3
06-01-2019,14:00,0.69043,R,ugm-3,3.50251,R,ugm-3,4.56116,R,ugm-3,42.95744,R,ugm-3
06-01-2019,15:00,0.46029,R,ugm-3,3.08533,R,ugm-3,3.79109,R,ugm-3,43.65594,R,ugm-3
06-01-2019,16:00,0.46029,R,ugm-3,4.21081,R,ugm-3,4.91658,R,ugm-3,39.36518,R,ugm-3
06-01-2019,17:00,0.49865,R,ugm-3,5.75136,R,ugm-3,6.51594,R,ugm-3,36.67099,R,ugm-3
06-01-2019,18:00,0.46029,R,ugm-3,7.76496,R,ugm-3,8.47073,R,ugm-3,30.63400,R,ugm-3
06-01-2019,19:00,0.26850,R,ugm-3,4.74182,R,ugm-3,5.15352,R,ugm-3,31.88131,R,ugm-3
06-01-2019,20:00,0.38358,R,ugm-3,3.49913,R,ugm-3,4.08727,R,ugm-3,31.28260,R,ugm-3
06-01-2019,21:00,0.53700,R,ugm-3,3.79700,R,ugm-3,4.62040,R,ugm-3,30.63400,R,ugm-3
06-01-2019,22:00,0.30686,R,ugm-3,3.55753,R,ugm-3,4.02804,R,ugm-3,30.68389,R,ugm-3
06-01-2019,23:00,0.26850,R,ugm-3,2.96475,R,ugm-3,3.37644,R,ugm-3,34.47572,R,ugm-3
06-01-2019,24:00,0.30686,R,ugm-3,2.31357,R,ugm-3,2.78408,R,ugm-3,40.01379,R,ugm-3
07-01-2019,01:00,0.46106,R,ugm-3,1.90504,R,ugm-3,2.61199,R,ugm-3,43.43974,R,ugm-3
07-01-2019,02:00,0.56352,R,ugm-3,1.74794,R,ugm-3,2.61199,R,ugm-3,44.63716,R,ugm-3
07-01-2019,03:00,0.30737,R,ugm-3,1.30960,R,ugm-3,1.78090,R,ugm-3,48.79487,R,ugm-3
07-01-2019,04:00,0.49948,R,ugm-3,1.31186,R,ugm-3,2.07772,R,ugm-3,51.43917,R,ugm-3
07-01-2019,05:00,0.26895,R,ugm-3,1.30915,R,ugm-3,1.72154,R,ugm-3,52.68648,R,ugm-3
07-01-2019,06:00,0.46106,R,ugm-3,1.19268,R,ugm-3,1.89963,R,ugm-3,53.73422,R,ugm-3
07-01-2019,07:00,0.34579,R,ugm-3,1.54751,R,ugm-3,2.07772,R,ugm-3,54.33293,R,ugm-3
07-01-2019,08:00,0.30737,R,ugm-3,1.36896,R,ugm-3,1.84026,R,ugm-3,57.17681,R,ugm-3
07-01-2019,09:00,0.23053,R,ugm-3,0.89316,R,ugm-3,1.24663,R,ugm-3,59.92089,R,ugm-3
07-01-2019,10:00,0.30737,R,ugm-3,1.07215,R,ugm-3,1.54345,R,ugm-3,61.76692,R,ugm-3
07-01-2019,11:00,0.53790,R,ugm-3,1.49040,R,ugm-3,2.31517,R,ugm-3,62.66498,R,ugm-3
07-01-2019,12:00,0.57632,R,ugm-3,2.14385,R,ugm-3,3.02753,R,ugm-3,74.88864,R,ugm-3
07-01-2019,13:00,0.34579,R,ugm-3,2.43796,R,ugm-3,2.96817,R,ugm-3,75.63703,R,ugm-3
07-01-2019,14:00,0.49948,R,ugm-3,2.91467,R,ugm-3,3.68052,R,ugm-3,72.74327,R,ugm-3
07-01-2019,15:00,0.42264,R,ugm-3,3.32931,R,ugm-3,3.97734,R,ugm-3,71.74542,R,ugm-3
07-01-2019,16:00,0.38422,R,ugm-3,3.92249,R,ugm-3,4.51161,R,ugm-3,71.29638,R,ugm-3
07-01-2019,17:00,0.46106,R,ugm-3,3.74530,R,ugm-3,4.45225,R,ugm-3,71.44606,R,ugm-3
07-01-2019,18:00,0.65317,R,ugm-3,3.62883,R,ugm-3,4.63034,R,ugm-3,71.89509,R,ugm-3
07-01-2019,19:00,0.53790,R,ugm-3,3.44939,R,ugm-3,4.27416,R,ugm-3,72.29423,R,ugm-3
07-01-2019,20:00,0.34579,R,ugm-3,2.25987,R,ugm-3,2.79008,R,ugm-3,72.29423,R,ugm-3
07-01-2019,21:00,0.30737,R,ugm-3,1.84387,R,ugm-3,2.31517,R,ugm-3,72.49380,R,ugm-3
07-01-2019,22:00,0.30737,R,ugm-3,1.13151,R,ugm-3,1.60281,R,ugm-3,73.14241,R,ugm-3
07-01-2019,23:00,0.15369,R,ugm-3,1.01098,R,ugm-3,1.24663,R,ugm-3,73.74112,R,ugm-3
07-01-2019,24:00,0.23053,R,ugm-3,1.01188,R,ugm-3,1.36536,R,ugm-3,71.94499,R,ugm-3
08-01-2019,01:00,0.41051,R,ugm-3,1.43290,R,ugm-3,2.06235,R,ugm-3,70.18212,R,ugm-3
08-01-2019,02:00,0.35920,R,ugm-3,1.03566,R,ugm-3,1.58642,R,ugm-3,69.98255,R,ugm-3
08-01-2019,03:00,0.30789,R,ugm-3,0.89620,R,ugm-3,1.36829,R,ugm-3,71.64563,R,ugm-3
08-01-2019,04:00,0.42334,R,ugm-3,1.01663,R,ugm-3,1.66574,R,ugm-3,73.04262,R,ugm-3
08-01-2019,05:00,0.23091,R,ugm-3,1.07372,R,ugm-3,1.42778,R,ugm-3,72.04477,R,ugm-3
08-01-2019,06:00,0.53880,R,ugm-3,1.43450,R,ugm-3,2.26065,R,ugm-3,71.89509,R,ugm-3
08-01-2019,07:00,0.57729,R,ugm-3,2.98174,R,ugm-3,3.86690,R,ugm-3,68.05337,R,ugm-3
08-01-2019,08:00,0.53880,R,ugm-3,5.18242,R,ugm-3,6.00857,R,ugm-3,65.40907,R,ugm-3
08-01-2019,09:00,0.65426,R,ugm-3,7.38502,R,ugm-3,8.38820,R,ugm-3,62.21595,R,ugm-3
08-01-2019,10:00,0.73123,R,ugm-3,7.14802,R,ugm-3,8.26922,R,ugm-3,60.76907,R,ugm-3
08-01-2019,11:00,1.11608,R,ugm-3,10.00837,R,ugm-3,11.71968,R,ugm-3,57.57595,R,ugm-3
08-01-2019,12:00,1.53943,R,ugm-3,12.15532,R,ugm-3,14.51575,R,ugm-3,54.18326,R,ugm-3
08-01-2019,13:00,2.07823,R,ugm-3,12.22154,R,ugm-3,15.40811,R,ugm-3,54.23315,R,ugm-3
08-01-2019,14:00,1.34700,R,ugm-3,9.35686,R,ugm-3,11.42223,R,ugm-3,57.22670,R,ugm-3
08-01-2019,15:00,0.80820,R,ugm-3,6.91101,R,ugm-3,8.15023,R,ugm-3,61.11831,R,ugm-3
08-01-2019,16:00,0.73123,R,ugm-3,9.28968,R,ugm-3,10.41088,R,ugm-3,54.93164,R,ugm-3
08-01-2019,17:00,0.84669,R,ugm-3,13.57446,R,ugm-3,14.87269,R,ugm-3,53.83401,R,ugm-3
08-01-2019,18:00,0.69274,R,ugm-3,11.37138,R,ugm-3,12.43357,R,ugm-3,57.72562,R,ugm-3
08-01-2019,19:00,0.46183,R,ugm-3,11.07104,R,ugm-3,11.77917,R,ugm-3,54.13336,R,ugm-3
08-01-2019,20:00,0.46183,R,ugm-3,9.28632,R,ugm-3,9.99445,R,ugm-3,59.07272,R,ugm-3
08-01-2019,21:00,0.46183,R,ugm-3,6.49025,R,ugm-3,7.19838,R,ugm-3,67.10541,R,ugm-3
08-01-2019,22:00,0.53880,R,ugm-3,6.43172,R,ugm-3,7.25787,R,ugm-3,68.40262,R,ugm-3
08-01-2019,23:00,0.50031,R,ugm-3,5.65787,R,ugm-3,6.42500,R,ugm-3,69.84950,R,ugm-3
08-01-2019,24:00,0.50031,R,ugm-3,6.13379,R,ugm-3,6.90093,R,ugm-3,67.75402,R,ugm-3
09-01-2019,01:00,0.35980,R,ugm-3,2.78694,R,ugm-3,3.33862,R,ugm-3,71.51258,R,ugm-3
09-01-2019,02:00,0.42405,R,ugm-3,4.11926,R,ugm-3,4.76946,R,ugm-3,67.58771,R,ugm-3
09-01-2019,03:00,0.34695,R,ugm-3,4.11824,R,ugm-3,4.65022,R,ugm-3,67.50455,R,ugm-3
09-01-2019,04:00,0.26985,R,ugm-3,4.11722,R,ugm-3,4.53098,R,ugm-3,66.35703,R,ugm-3
09-01-2019,05:00,0.42405,R,ugm-3,6.26552,R,ugm-3,6.91571,R,ugm-3,60.46971,R,ugm-3
09-01-2019,06:00,0.42405,R,ugm-3,9.06757,R,ugm-3,9.71777,R,ugm-3,57.02713,R,ugm-3
09-01-2019,07:00,0.88665,R,ugm-3,14.79703,R,ugm-3,16.15654,R,ugm-3,52.43702,R,ugm-3
09-01-2019,08:00,1.04084,R,ugm-3,14.62022,R,ugm-3,16.21615,R,ugm-3,52.18756,R,ugm-3
09-01-2019,09:00,1.73474,R,ugm-3,21.42586,R,ugm-3,24.08576,R,ugm-3,44.95314,R,ugm-3
09-01-2019,10:00,1.77329,R,ugm-3,21.60523,R,ugm-3,24.32423,R,ugm-3,44.60390,R,ugm-3
09-01-2019,11:00,2.08169,R,ugm-3,15.23015,R,ugm-3,18.42203,R,ugm-3,51.68863,R,ugm-3
09-01-2019,12:00,1.27214,R,ugm-3,8.95954,R,ugm-3,10.91013,R,ugm-3,57.72562,R,ugm-3
09-01-2019,13:00,2.69849,R,ugm-3,13.62861,R,ugm-3,17.76623,R,ugm-3,48.29594,R,ugm-3
09-01-2019,14:00,,,,,,,,,,,,
09-01-2019,15:00,,,,,,,,,,,,
09-01-2019,16:00,1.38779,R,ugm-3,12.65740,R,ugm-3,14.78532,R,ugm-3,45.23587,R,ugm-3
09-01-2019,17:00,1.19504,R,ugm-3,14.97996,R,ugm-3,16.81234,R,ugm-3,44.40433,R,ugm-3
09-01-2019,18:00,0.80955,R,ugm-3,12.70938,R,ugm-3,13.95066,R,ugm-3,47.19831,R,ugm-3
09-01-2019,19:00,0.38550,R,ugm-3,7.27852,R,ugm-3,7.86961,R,ugm-3,55.18111,R,ugm-3
09-01-2019,20:00,0.46260,R,ugm-3,5.49099,R,ugm-3,6.20029,R,ugm-3,56.22885,R,ugm-3
09-01-2019,21:00,0.46260,R,ugm-3,5.31213,R,ugm-3,6.02144,R,ugm-3,55.82971,R,ugm-3
09-01-2019,22:00,0.34695,R,ugm-3,2.68741,R,ugm-3,3.21938,R,ugm-3,61.86670,R,ugm-3
09-01-2019,23:00,0.38550,R,ugm-3,2.33020,R,ugm-3,2.92129,R,ugm-3,62.66498,R,ugm-3
09-01-2019,24:00,0.38550,R,ugm-3,2.33020,R,ugm-3,2.92129,R,ugm-3,60.86885,R,ugm-3
10-01-2019,01:00,0.36044,R,ugm-3,2.47588,R,ugm-3,3.02854,R,ugm-3,59.73795,R,ugm-3
10-01-2019,02:00,0.51491,R,ugm-3,1.76083,R,ugm-3,2.55035,R,ugm-3,61.33451,R,ugm-3
10-01-2019,03:00,0.27033,R,ugm-3,2.51442,R,ugm-3,2.92892,R,ugm-3,53.93379,R,ugm-3
10-01-2019,04:00,0.61789,R,ugm-3,3.47584,R,ugm-3,4.42326,R,ugm-3,46.35013,R,ugm-3
10-01-2019,05:00,0.34756,R,ugm-3,2.69486,R,ugm-3,3.22779,R,ugm-3,45.60175,R,ugm-3
10-01-2019,06:00,0.46342,R,ugm-3,3.59315,R,ugm-3,4.30371,R,ugm-3,46.05078,R,ugm-3
10-01-2019,07:00,0.42480,R,ugm-3,4.13055,R,ugm-3,4.78190,R,ugm-3,46.00089,R,ugm-3
10-01-2019,08:00,0.73375,R,ugm-3,3.65684,R,ugm-3,4.78190,R,ugm-3,55.58025,R,ugm-3
10-01-2019,09:00,0.54066,R,ugm-3,2.39879,R,ugm-3,3.22779,R,ugm-3,55.82971,R,ugm-3
10-01-2019,10:00,0.61789,R,ugm-3,4.67132,R,ugm-3,5.61874,R,ugm-3,52.13766,R,ugm-3
10-01-2019,11:00,1.00407,R,ugm-3,8.50244,R,ugm-3,10.04200,R,ugm-3,49.09422,R,ugm-3
10-01-2019,12:00,1.11993,R,ugm-3,14.06309,R,ugm-3,15.78028,R,ugm-3,43.40648,R,ugm-3
10-01-2019,13:00,1.31302,R,ugm-3,16.15797,R,ugm-3,18.17124,R,ugm-3,43.15701,R,ugm-3
10-01-2019,14:00,1.50611,R,ugm-3,14.66643,R,ugm-3,16.97576,R,ugm-3,51.58885,R,ugm-3
10-01-2019,15:00,1.15855,R,ugm-3,12.68885,R,ugm-3,14.46526,R,ugm-3,56.17896,R,ugm-3
10-01-2019,16:00,0.65651,R,ugm-3,10.46994,R,ugm-3,11.47657,R,ugm-3,56.87745,R,ugm-3
10-01-2019,17:00,0.69513,R,ugm-3,9.15547,R,ugm-3,10.22132,R,ugm-3,62.56520,R,ugm-3
10-01-2019,18:00,0.42480,R,ugm-3,9.98839,R,ugm-3,10.63974,R,ugm-3,54.03358,R,ugm-3
10-01-2019,19:00,0.61789,R,ugm-3,10.17051,R,ugm-3,11.11793,R,ugm-3,54.83186,R,ugm-3
10-01-2019,20:00,0.50204,R,ugm-3,8.67448,R,ugm-3,9.44426,R,ugm-3,59.72132,R,ugm-3
10-01-2019,21:00,0.50204,R,ugm-3,11.12521,R,ugm-3,11.89499,R,ugm-3,56.22885,R,ugm-3
10-01-2019,22:00,0.38618,R,ugm-3,11.90059,R,ugm-3,12.49272,R,ugm-3,55.53035,R,ugm-3
10-01-2019,23:00,0.50204,R,ugm-3,6.10421,R,ugm-3,6.87399,R,ugm-3,59.82111,R,ugm-3
10-01-2019,24:00,0.42480,R,ugm-3,4.90761,R,ugm-3,5.55896,R,ugm-3,61.16821,R,ugm-3
11-01-2019,01:00,0.72215,R,ugm-3,2.32867,R,ugm-3,3.43595,R,ugm-3,63.46326,R,ugm-3
11-01-2019,02:00,0.56740,R,ugm-3,1.60708,R,ugm-3,2.47708,R,ugm-3,63.99545,R,ugm-3
11-01-2019,03:00,0.46424,R,ugm-3,1.98500,R,ugm-3,2.69682,R,ugm-3,62.01638,R,ugm-3
11-01-2019,04:00,0.58030,R,ugm-3,2.64606,R,ugm-3,3.53583,R,ugm-3,59.47186,R,ugm-3
11-01-2019,05:00,0.42555,R,ugm-3,2.10425,R,ugm-3,2.75675,R,ugm-3,61.01853,R,ugm-3
11-01-2019,06:00,0.65767,R,ugm-3,1.98805,R,ugm-3,2.99647,R,ugm-3,63.31358,R,ugm-3
11-01-2019,07:00,0.69636,R,ugm-3,3.78655,R,ugm-3,4.85428,R,ugm-3,61.11831,R,ugm-3
11-01-2019,08:00,0.61899,R,ugm-3,6.96158,R,ugm-3,7.91068,R,ugm-3,59.42197,R,ugm-3
11-01-2019,09:00,0.81242,R,ugm-3,7.26428,R,ugm-3,8.50997,R,ugm-3,59.37208,R,ugm-3
11-01-2019,10:00,0.54161,R,ugm-3,9.35754,R,ugm-3,10.18800,R,ugm-3,55.82971,R,ugm-3
11-01-2019,11:00,0.65767,R,ugm-3,8.46043,R,ugm-3,9.46884,R,ugm-3,61.06842,R,ugm-3
11-01-2019,12:00,0.61899,R,ugm-3,6.78179,R,ugm-3,7.73089,R,ugm-3,65.30928,R,ugm-3
11-01-2019,13:00,0.77373,R,ugm-3,8.34240,R,ugm-3,9.52877,R,ugm-3,63.56305,R,ugm-3
11-01-2019,14:00,0.73505,R,ugm-3,4.44638,R,ugm-3,5.57343,R,ugm-3,68.60219,R,ugm-3
11-01-2019,15:00,0.46424,R,ugm-3,3.96267,R,ugm-3,4.67449,R,ugm-3,68.95144,R,ugm-3
11-01-2019,16:00,0.42555,R,ugm-3,5.16065,R,ugm-3,5.81315,R,ugm-3,65.85810,R,ugm-3
11-01-2019,17:00,0.50293,R,ugm-3,3.60371,R,ugm-3,4.37485,R,ugm-3,67.25509,R,ugm-3
11-01-2019,18:00,0.50293,R,ugm-3,2.82462,R,ugm-3,3.59576,R,ugm-3,66.45681,R,ugm-3
11-01-2019,19:00,0.38687,R,ugm-3,2.10364,R,ugm-3,2.69682,R,ugm-3,68.40262,R,ugm-3
11-01-2019,20:00,0.61899,R,ugm-3,1.56794,R,ugm-3,2.51703,R,ugm-3,69.30068,R,ugm-3
11-01-2019,21:00,0.46424,R,ugm-3,1.08606,R,ugm-3,1.79788,R,ugm-3,71.09681,R,ugm-3
11-01-2019,22:00,0.46424,R,ugm-3,0.66655,R,ugm-3,1.37838,R,ugm-3,69.84950,R,ugm-3
11-01-2019,23:00,0.42555,R,ugm-3,0.78580,R,ugm-3,1.43831,R,ugm-3,68.10326,R,ugm-3
11-01-2019,24:00,0.19343,R,ugm-3,0.78214,R,ugm-3,1.07873,R,ugm-3,67.15531,R,ugm-3
12-01-2019,01:00,0.36171,R,ugm-3,1.12776,R,ugm-3,1.68238,R,ugm-3,66.12419,R,ugm-3
12-01-2019,02:00,0.56841,R,ugm-3,0.89095,R,ugm-3,1.76249,R,ugm-3,65.19287,R,ugm-3
12-01-2019,03:00,0.38755,R,ugm-3,0.96798,R,ugm-3,1.56221,R,ugm-3,72.94284,R,ugm-3
12-01-2019,04:00,0.73634,R,ugm-3,0.73359,R,ugm-3,1.86263,R,ugm-3,73.24219,R,ugm-3
12-01-2019,05:00,0.42631,R,ugm-3,1.20898,R,ugm-3,1.86263,R,ugm-3,71.19660,R,ugm-3
12-01-2019,06:00,0.58132,R,ugm-3,1.15154,R,ugm-3,2.04289,R,ugm-3,70.64778,R,ugm-3
12-01-2019,07:00,0.62008,R,ugm-3,1.45262,R,ugm-3,2.40340,R,ugm-3,68.10326,R,ugm-3
12-01-2019,08:00,0.46506,R,ugm-3,2.17100,R,ugm-3,2.88408,R,ugm-3,68.90154,R,ugm-3
12-01-2019,09:00,0.38755,R,ugm-3,2.65035,R,ugm-3,3.24459,R,ugm-3,69.10111,R,ugm-3
12-01-2019,10:00,0.38755,R,ugm-3,3.25120,R,ugm-3,3.84544,R,ugm-3,69.35058,R,ugm-3
12-01-2019,11:00,0.58132,R,ugm-3,3.43477,R,ugm-3,4.32612,R,ugm-3,69.30068,R,ugm-3
12-01-2019,12:00,0.69759,R,ugm-3,3.97752,R,ugm-3,5.04714,R,ugm-3,69.10111,R,ugm-3
12-01-2019,13:00,0.42631,R,ugm-3,2.89136,R,ugm-3,3.54501,R,ugm-3,71.99488,R,ugm-3
12-01-2019,14:00,0.50381,R,ugm-3,1.99140,R,ugm-3,2.76391,R,ugm-3,70.64778,R,ugm-3
12-01-2019,15:00,0.50381,R,ugm-3,1.99140,R,ugm-3,2.76391,R,ugm-3,69.10111,R,ugm-3
12-01-2019,16:00,0.65883,R,ugm-3,2.59490,R,ugm-3,3.60510,R,ugm-3,69.64993,R,ugm-3
12-01-2019,17:00,0.54257,R,ugm-3,3.31394,R,ugm-3,4.14586,R,ugm-3,69.89939,R,ugm-3
12-01-2019,18:00,0.46506,R,ugm-3,2.59159,R,ugm-3,3.30467,R,ugm-3,72.04477,R,ugm-3
12-01-2019,19:00,0.50381,R,ugm-3,2.35191,R,ugm-3,3.12442,R,ugm-3,71.34628,R,ugm-3
12-01-2019,20:00,0.46506,R,ugm-3,1.87057,R,ugm-3,2.58365,R,ugm-3,70.89724,R,ugm-3
12-01-2019,21:00,0.42631,R,ugm-3,2.05017,R,ugm-3,2.70382,R,ugm-3,70.84735,R,ugm-3
12-01-2019,22:00,0.46506,R,ugm-3,1.38989,R,ugm-3,2.10297,R,ugm-3,72.24434,R,ugm-3
12-01-2019,23:00,0.38755,R,ugm-3,1.32849,R,ugm-3,1.92272,R,ugm-3,73.39187,R,ugm-3
12-01-2019,24:00,0.58132,R,ugm-3,0.97128,R,ugm-3,1.86263,R,ugm-3,75.78671,R,ugm-3
13-01-2019,01:00,0.36235,R,ugm-3,0.97050,R,ugm-3,1.52610,R,ugm-3,75.77008,R,ugm-3